{"data":{"norad_id":68303,"epoch":"2026-05-24T21:06:18.684288Z","epoch_age_seconds":96133,"freshness":"FRESH","line1":"1 68303U 26057K   26144.87938292  .00120109  00000+0  79285-3 0  9991","line2":"2 68303  97.2845 271.1836 0000723 125.4400 234.6933 15.75248835 10282","mean_motion":15.75248835,"eccentricity":7.23e-5,"inclination_deg":97.2845,"raan_deg":271.1836,"arg_perigee_deg":125.44,"mean_anomaly_deg":234.6933,"bstar":0.00079285,"rev_number":1028,"period_min":91.414128866821,"perigee_km":343.43718077344,"apogee_km":344.4091906763,"semimajor_km":6722.0601857249,"source":"CELESTRAK","updated_at":"2026-05-25T13:38:21.917450Z"}}